Weather History for Baltimore Martin, MD

Change the Weather History Date:

Wednesday, March 27, 2013

  Actual Average Record
Temperature  
Mean Temperature 44 °F -  
Max Temperature 50 °F 54 °F 82 °F (2007)
Min Temperature 39 °F 38 °F 23 °F (2001)
Degree Days  
Heating Degree Days 20    
Moisture  
Dew Point 29 °F    
Average Humidity 59    
Maximum Humidity 75    
Minimum Humidity 43    
Precipitation  
Precipitation 0.00 in - - ()
Sea Level Pressure  
Sea Level Pressure 30.02 in    
Wind  
Wind Speed 13 mph (West)    
Max Wind Speed 28 mph    
Max Gust Speed 33 mph    
Visibility 10 miles    
Events      
Averages and records for this station are not official NWS values.
T = Trace of Precipitation, MM = Missing Value Source: NWS Daily Summary

Daily Weather History Graph

Daily Weather History Graph

Search for Another Location

Airport:

Trip Planner

Search our weather history database for the weather conditions in past years. The results will help you decide how hot, cold, wet, or windy it might be!

Date:

Astronomy

Mar. 27, 2013 Rise Set
Actual Time 6:57 AM EDT 7:24 PM EDT
Civil Twilight 6:30 AM EDT 7:51 PM EDT
Nautical Twilight 5:59 AM EDT 8:23 PM EDT
Astronomical Twilight 5:26 AM EDT 8:55 PM EDT
Moon 8:05 PM EDT 6:47 AM EDT
Length of Visible Light 13h 21m
Length of Day
12h 27m
Full, 100% of the Moon is Illuminated
Mar 27
Full
Apr 3
Last Quarter
Apr 10
New
Apr 18
First Quarter
Apr 25
Full

Hourly Weather History & Observations

Time (EDT) Temp. Windchill Dew Point Humidity Pressure Visibility Wind Dir Wind Speed Gust Speed Precip Events Conditions
12:06 AM 42.8 °F 35.8 °F 32.0 °F 66% 29.97 in 10.0 mi West 13.8 mph - N/A   Clear
12:27 AM 42.8 °F 35.4 °F 30.2 °F 61% 29.97 in 10.0 mi West 15.0 mph 20.7 mph N/A   Clear
12:48 AM 42.8 °F 36.2 °F 30.2 °F 61% 29.97 in 10.0 mi West 12.7 mph - N/A   Clear
1:06 AM 42.8 °F 35.8 °F 30.2 °F 61% 29.98 in 10.0 mi West 13.8 mph - N/A   Scattered Clouds
1:27 AM 41.0 °F 33.9 °F 30.2 °F 65% 29.98 in 10.0 mi West 12.7 mph - N/A   Scattered Clouds
2:06 AM 41.0 °F 35.2 °F 32.0 °F 70% 29.98 in 10.0 mi West 9.2 mph - N/A   Clear
2:27 AM 41.0 °F 33.9 °F 32.0 °F 70% 29.98 in 10.0 mi West 12.7 mph - N/A   Clear
2:48 AM 41.0 °F 34.3 °F 32.0 °F 70% 29.98 in 10.0 mi West 11.5 mph 16.1 mph N/A   Clear
3:06 AM 39.2 °F 32.5 °F 32.0 °F 75% 29.98 in 10.0 mi West 10.4 mph - N/A   Clear
3:27 AM 39.2 °F 31.6 °F 32.0 °F 75% 29.98 in 10.0 mi West 12.7 mph - N/A   Clear
3:48 AM 39.2 °F 32.0 °F 32.0 °F 75% 29.98 in 10.0 mi West 11.5 mph - N/A   Clear
4:06 AM 41.0 °F 33.5 °F 32.0 °F 70% 29.98 in 10.0 mi West 13.8 mph - N/A   Clear
4:27 AM 41.0 °F 33.9 °F 30.2 °F 65% 29.98 in 10.0 mi West 12.7 mph 21.9 mph N/A   Clear
4:48 AM 41.0 °F 35.2 °F 30.2 °F 65% 29.98 in 10.0 mi West 9.2 mph - N/A   Clear
5:06 AM 39.2 °F 32.5 °F 30.2 °F 70% 29.98 in 10.0 mi West 10.4 mph - N/A   Clear
5:27 AM 39.2 °F 33.0 °F 30.2 °F 70% 29.99 in 10.0 mi West 9.2 mph - N/A   Clear
5:33 AM 39.2 °F 33.6 °F 30.2 °F 70% 29.99 in 10.0 mi West 8.1 mph - N/A   Scattered Clouds
5:54 AM 41.0 °F 34.3 °F 30.2 °F 65% 29.99 in 10.0 mi West 11.5 mph 16.1 mph N/A   Scattered Clouds
6:54 AM 41.0 °F 38.0 °F 28.4 °F 61% 30.01 in 10.0 mi West 4.6 mph - N/A   Scattered Clouds
7:54 AM 41.0 °F 34.7 °F 28.4 °F 61% 30.03 in 10.0 mi West 10.4 mph 16.1 mph N/A   Scattered Clouds
8:45 AM 44.6 °F 37.4 °F 28.4 °F 53% 30.05 in 10.0 mi West 16.1 mph 20.7 mph N/A   Partly Cloudy
9:50 AM 44.6 °F 36.9 °F 28.4 °F 53% 30.05 in 10.0 mi WNW 18.4 mph 31.1 mph N/A   Partly Cloudy
10:55 AM 46.4 °F 38.3 °F 28.4 °F 50% 30.05 in 10.0 mi West 23.0 mph 28.8 mph N/A   Mostly Cloudy
11:55 AM 48.2 °F - 28.4 °F 46% 30.04 in 10.0 mi WNW 18.4 mph 28.8 mph N/A   Scattered Clouds
12:45 PM 50.0 °F - 28.4 °F 43% 30.03 in 10.0 mi West 27.6 mph 33.4 mph N/A   Mostly Cloudy
1:45 PM 50.0 °F - 28.4 °F 43% 30.03 in 10.0 mi West 19.6 mph 29.9 mph N/A   Scattered Clouds
2:45 PM 48.2 °F - 26.6 °F 43% 30.02 in 10.0 mi West 19.6 mph 26.5 mph N/A   Mostly Cloudy
3:50 PM 48.2 °F - 26.6 °F 43% 30.02 in 10.0 mi WNW 17.3 mph 28.8 mph N/A   Mostly Cloudy
4:50 PM 50.0 °F - 30.2 °F 47% 30.02 in 10.0 mi West 18.4 mph 29.9 mph N/A   Scattered Clouds
5:50 PM 48.2 °F - 30.2 °F 50% 30.04 in 10.0 mi WNW 26.5 mph 31.1 mph N/A   Mostly Cloudy
6:45 PM 46.4 °F 40.1 °F 30.2 °F 53% 30.05 in 10.0 mi West 15.0 mph 21.9 mph N/A   Scattered Clouds
7:45 PM 46.4 °F 40.4 °F 26.6 °F 46% 30.07 in 10.0 mi West 13.8 mph - N/A   Scattered Clouds
8:45 PM 44.6 °F 39.2 °F 24.8 °F 46% 30.08 in 10.0 mi West 10.4 mph 18.4 mph N/A   Partly Cloudy
9:45 PM 42.8 °F 36.6 °F 24.8 °F 49% 30.10 in 10.0 mi West 11.5 mph - N/A   Clear
10:09 PM 42.8 °F 37.0 °F 28.4 °F 57% 30.10 in 10.0 mi West 10.4 mph - N/A   Clear
10:30 PM 42.8 °F 36.6 °F 28.4 °F 57% 30.10 in 10.0 mi West 11.5 mph - N/A   Clear
10:48 PM 42.8 °F 38.0 °F 28.4 °F 57% 30.10 in 10.0 mi West 8.1 mph - N/A   Clear
11:09 PM 42.8 °F 38.0 °F 28.4 °F 57% 30.10 in 10.0 mi West 8.1 mph - N/A   Clear
11:30 PM 41.0 °F 35.8 °F 28.4 °F 61% 30.10 in 10.0 mi West 8.1 mph - N/A   Clear
11:48 PM 41.0 °F 33.9 °F 28.4 °F 61% 30.10 in 10.0 mi West 12.7 mph - N/A   Clear